• en Suisse
  • Liste des pays
  • À 7 jours
  • Température de l'eau
  • Carte satellitaire
  • Carte météo
  • Widgets météo
  • user-avatar
    Se connecter

    Météo par heure à Seredyna

    Ce jour, 18 Juillet, Mercredi

    Heure Température Précipitation Vent Pression Humidité
    00:00 +18°C° 0 mm 3 m/s 728 mmHg 97%
    01:00 +18°C° 0 mm 3 m/s 728 mmHg 97%
    02:00 +18°C° 0 mm 3 m/s 728 mmHg 97%
    03:00 +18°C° 0,1 mm 3 m/s 728 mmHg 97%
    04:00 +18°C° 0,1 mm 3 m/s 728 mmHg 97%
    05:00 +18°C° 0,1 mm 3 m/s 728 mmHg 97%
    06:00 +18°C° 0,1 mm 3 m/s 728 mmHg 96%
    07:00 +19°C° 0,1 mm 3 m/s 728 mmHg 95%
    08:00 +19°C° 0,1 mm 3 m/s 728 mmHg 93%
    09:00 +20°C° 0,2 mm 3 m/s 728 mmHg 91%
    10:00 +21°C° 0,2 mm 3 m/s 728 mmHg 89%
    11:00 +21°C° 0,2 mm 3 m/s 729 mmHg 87%
    12:00 +22°C° 0,4 mm 3 m/s 728 mmHg 84%
    13:00 +24°C° 0,4 mm 3 m/s 728 mmHg 82%
    14:00 +24°C° 0,4 mm 3 m/s 728 mmHg 79%
    15:00 +24°C° 0,5 mm 3 m/s 728 mmHg 80%
    16:00 +25°C° 0,5 mm 3 m/s 728 mmHg 80%
    17:00 +25°C° 0,5 mm 3 m/s 728 mmHg 81%
    18:00 +24°C° 0,6 mm 3 m/s 728 mmHg 85%
    19:00 +23°C° 0,6 mm 2 m/s 728 mmHg 89%
    20:00 +21°C° 0,6 mm 2 m/s 728 mmHg 92%
    21:00 +20°C° 0,4 mm 2 m/s 728 mmHg 94%
    22:00 +20°C° 0,4 mm 2 m/s 729 mmHg 95%
    23:00 +19°C° 0,4 mm 2 m/s 729 mmHg 96%

    Demain, 19 Juillet, Jeudi

    Heure Température Précipitation Vent Pression Humidité
    00:00 +19°C° 0,3 mm 2 m/s 729 mmHg 96%
    01:00 +19°C° 0,3 mm 2 m/s 729 mmHg 97%
    02:00 +19°C° 0,3 mm 2 m/s 729 mmHg 97%
    03:00 +19°C° 0,6 mm 2 m/s 729 mmHg 98%
    04:00 +19°C° 0,6 mm 2 m/s 729 mmHg 98%
    05:00 +19°C° 0,6 mm 2 m/s 729 mmHg 98%
    06:00 +20°C° 0,2 mm 3 m/s 730 mmHg 97%
    07:00 +20°C° 0,2 mm 3 m/s 730 mmHg 95%
    08:00 +21°C° 0,2 mm 3 m/s 730 mmHg 93%
    09:00 +22°C° 0,3 mm 3 m/s 730 mmHg 89%
    10:00 +23°C° 0,3 mm 4 m/s 731 mmHg 84%
    11:00 +25°C° 0,3 mm 4 m/s 731 mmHg 79%
    12:00 +26°C° 0,3 mm 4 m/s 731 mmHg 76%
    13:00 +27°C° 0,3 mm 5 m/s 731 mmHg 72%
    14:00 +27°C° 0,3 mm 5 m/s 731 mmHg 69%
    15:00 +27°C° 0,3 mm 5 m/s 731 mmHg 70%
    16:00 +27°C° 0,3 mm 5 m/s 731 mmHg 70%
    17:00 +27°C° 0,3 mm 5 m/s 731 mmHg 71%
    18:00 +26°C° 0,1 mm 4 m/s 731 mmHg 74%
    19:00 +23°C° 0,1 mm 4 m/s 732 mmHg 78%
    20:00 +22°C° 0,1 mm 3 m/s 732 mmHg 81%
    21:00 +21°C° 0 mm 3 m/s 732 mmHg 83%
    22:00 +20°C° 0 mm 3 m/s 732 mmHg 86%
    23:00 +19°C° 0 mm 3 m/s 732 mmHg 88%

    Après-demain, 20 Juillet, Vendredi

    Heure Température Précipitation Vent Pression Humidité
    00:00 +19°C° 0 mm 3 m/s 732 mmHg 90%
    01:00 +18°C° 0 mm 3 m/s 732 mmHg 91%
    02:00 +18°C° 0 mm 4 m/s 732 mmHg 93%
    03:00 +18°C° 0 mm 4 m/s 732 mmHg 94%
    04:00 +18°C° 0 mm 4 m/s 732 mmHg 94%
    05:00 +18°C° 0 mm 4 m/s 732 mmHg 95%
    06:00 +19°C° 0 mm 4 m/s 733 mmHg 92%
    07:00 +20°C° 0 mm 5 m/s 733 mmHg 88%
    08:00 +21°C° 0 mm 5 m/s 733 mmHg 85%
    09:00 +22°C° 0,1 mm 5 m/s 733 mmHg 81%
    10:00 +23°C° 0,1 mm 5 m/s 733 mmHg 76%
    11:00 +24°C° 0,1 mm 6 m/s 733 mmHg 72%
    12:00 +26°C° 0,1 mm 6 m/s 733 mmHg 67%
    13:00 +26°C° 0,1 mm 6 m/s 733 mmHg 63%
    14:00 +27°C° 0,1 mm 6 m/s 733 mmHg 59%
    15:00 +27°C° 0 mm 6 m/s 733 mmHg 60%
    16:00 +26°C° 0 mm 6 m/s 733 mmHg 62%
    17:00 +26°C° 0 mm 5 m/s 733 mmHg 64%
    18:00 +25°C° 0 mm 5 m/s 733 mmHg 69%
    19:00 +22°C° 0 mm 4 m/s 733 mmHg 74%
    20:00 +21°C° 0 mm 4 m/s 733 mmHg 80%
    21:00 +20°C° 0 mm 4 m/s 733 mmHg 82%
    22:00 +20°C° 0 mm 4 m/s 733 mmHg 84%
    23:00 +19°C° 0 mm 5 m/s 733 mmHg 87%

    21 Juillet, Samedi

    Heure Température Précipitation Vent Pression Humidité
    00:00 +19°C° 0 mm 5 m/s 733 mmHg 89%
    01:00 +17°C° 0 mm 5 m/s 733 mmHg 91%
    02:00 +17°C° 0 mm 5 m/s 733 mmHg 93%
    03:00 +17°C° 0 mm 4 m/s 733 mmHg 94%
    04:00 +17°C° 0 mm 4 m/s 733 mmHg 95%
    05:00 +17°C° 0 mm 4 m/s 733 mmHg 96%
    06:00 +17°C° 0 mm 4 m/s 733 mmHg 93%
    07:00 +18°C° 0 mm 4 m/s 733 mmHg 89%
    08:00 +19°C° 0 mm 5 m/s 733 mmHg 86%
    09:00 +21°C° 0 mm 5 m/s 733 mmHg 80%
    10:00 +22°C° 0 mm 5 m/s 733 mmHg 73%
    11:00 +25°C° 0 mm 5 m/s 733 mmHg 67%
    12:00 +25°C° 0 mm 5 m/s 733 mmHg 64%
    13:00 +26°C° 0 mm 5 m/s 733 mmHg 62%
    14:00 +27°C° 0 mm 4 m/s 732 mmHg 59%
    15:00 +27°C° 0 mm 4 m/s 732 mmHg 60%
    16:00 +27°C° 0 mm 4 m/s 732 mmHg 61%
    17:00 +27°C° 0 mm 4 m/s 732 mmHg 62%
    18:00 +25°C° 0 mm 3 m/s 732 mmHg 68%
    19:00 +24°C° 0 mm 3 m/s 732 mmHg 74%
    20:00 +23°C° 0 mm 2 m/s 732 mmHg 80%
    21:00 +21°C° 0 mm 2 m/s 732 mmHg 83%
    22:00 +20°C° 0 mm 2 m/s 732 mmHg 85%
    23:00 +19°C° 0 mm 2 m/s 732 mmHg 88%

    22 Juillet, Dimanche

    Heure Température Précipitation Vent Pression Humidité
    00:00 +18°C° 0 mm 2 m/s 732 mmHg 90%
    01:00 +18°C° 0 mm 2 m/s 732 mmHg 91%
    02:00 +17°C° 0 mm 2 m/s 732 mmHg 92%
    03:00 +17°C° 0 mm 2 m/s 732 mmHg 93%
    04:00 +17°C° 0 mm 2 m/s 732 mmHg 94%
    05:00 +16°C° 0 mm 2 m/s 732 mmHg 95%
    06:00 +18°C° 0 mm 2 m/s 732 mmHg 91%
    07:00 +19°C° 0 mm 2 m/s 732 mmHg 86%
    08:00 +21°C° 0 mm 2 m/s 732 mmHg 82%
    09:00 +22°C° 0,1 mm 3 m/s 732 mmHg 77%
    10:00 +24°C° 0,1 mm 3 m/s 732 mmHg 71%
    11:00 +25°C° 0,1 mm 3 m/s 732 mmHg 66%
    12:00 +26°C° 0,2 mm 3 m/s 732 mmHg 64%
    13:00 +26°C° 0,2 mm 3 m/s 732 mmHg 62%
    14:00 +27°C° 0,2 mm 3 m/s 732 mmHg 60%
    15:00 +27°C° 0,2 mm 3 m/s 732 mmHg 61%
    16:00 +27°C° 0,2 mm 3 m/s 732 mmHg 63%
    17:00 +26°C° 0,2 mm 3 m/s 732 mmHg 64%
    18:00 +25°C° 0,3 mm 3 m/s 732 mmHg 69%
    19:00 +23°C° 0,3 mm 2 m/s 732 mmHg 74%
    20:00 +21°C° 0,3 mm 2 m/s 733 mmHg 79%
    21:00 +20°C° 0 mm 2 m/s 733 mmHg 81%
    22:00 +19°C° 0 mm 2 m/s 733 mmHg 83%
    23:00 +18°C° 0 mm 2 m/s 733 mmHg 85%

    23 Juillet, Lundi

    Heure Température Précipitation Vent Pression Humidité
    00:00 +18°C° 0 mm 2 m/s 734 mmHg 86%
    01:00 +17°C° 0 mm 2 m/s 734 mmHg 88%
    02:00 +16°C° 0 mm 2 m/s 734 mmHg 90%
    03:00 +16°C° 0 mm 2 m/s 734 mmHg 91%
    04:00 +16°C° 0 mm 2 m/s 734 mmHg 91%
    05:00 +15°C° 0 mm 2 m/s 735 mmHg 92%
    06:00 +16°C° 0 mm 2 m/s 735 mmHg 87%
    07:00 +18°C° 0 mm 2 m/s 735 mmHg 83%
    08:00 +19°C° 0 mm 2 m/s 736 mmHg 79%
    09:00 +20°C° 0,1 mm 2 m/s 736 mmHg 74%
    10:00 +21°C° 0,1 mm 2 m/s 736 mmHg 69%
    11:00 +24°C° 0,1 mm 3 m/s 736 mmHg 65%
    12:00 +24°C° 0,2 mm 3 m/s 736 mmHg 64%
    13:00 +25°C° 0,2 mm 3 m/s 736 mmHg 63%
    14:00 +25°C° 0,2 mm 3 m/s 735 mmHg 62%
    15:00 +25°C° 0,2 mm 3 m/s 735 mmHg 63%
    16:00 +25°C° 0,2 mm 3 m/s 735 mmHg 64%
    17:00 +24°C° 0,2 mm 2 m/s 735 mmHg 65%
    18:00 +23°C° 0 mm 2 m/s 735 mmHg 69%
    19:00 +22°C° 0 mm 1 m/s 735 mmHg 73%
    20:00 +21°C° 0 mm 1 m/s 735 mmHg 77%
    21:00 +20°C° 0 mm 1 m/s 736 mmHg 79%
    22:00 +19°C° 0 mm 1 m/s 736 mmHg 80%
    23:00 +18°C° 0 mm 1 m/s 736 mmHg 82%
    Voir plus